TimeCST,TemperatureF,Dew PointF,Humidity,Sea Level PressureIn,VisibilityMPH,Wind Direction,Wind SpeedMPH,Gust SpeedMPH,PrecipitationIn,Events,Conditions,WindDirDegrees,DateUTC
12:53 AM,48.0,43.0,83,30.01,10.0,Calm,Calm,-,N/A,,Scattered Clouds,0,2013-02-05 06:53:00
1:53 AM,48.0,45.0,89,29.99,10.0,Calm,Calm,-,0.00,Rain,Light Rain,0,2013-02-05 07:53:00
2:53 AM,48.0,46.0,93,30.00,9.0,Calm,Calm,-,0.02,Rain,Light Rain,0,2013-02-05 08:53:00
3:53 AM,48.9,46.9,93,29.99,6.0,Calm,Calm,-,0.03,Rain,Light Rain,0,2013-02-05 09:53:00
4:53 AM,50.0,48.0,93,29.99,7.0,Calm,Calm,-,0.02,Rain,Light Rain,0,2013-02-05 10:53:00
5:53 AM,50.0,48.9,96,30.01,3.0,Calm,Calm,-,0.04,,Overcast,0,2013-02-05 11:53:00
6:02 AM,50.0,48.2,94,30.01,2.5,Calm,Calm,-,N/A,,Overcast,0,2013-02-05 12:02:00
6:09 AM,50.0,48.2,94,30.01,6.0,Calm,Calm,-,N/A,,Overcast,0,2013-02-05 12:09:00
6:53 AM,51.1,48.9,92,30.03,8.0,Calm,Calm,-,N/A,,Overcast,0,2013-02-05 12:53:00
7:53 AM,53.1,50.0,89,30.04,7.0,Calm,Calm,-,N/A,,Overcast,0,2013-02-05 13:53:00
8:53 AM,54.0,52.0,93,30.05,9.0,Calm,Calm,-,N/A,,Overcast,0,2013-02-05 14:53:00
9:53 AM,55.9,53.1,90,30.07,2.0,Calm,Calm,-,0.01,Rain,Light Rain,0,2013-02-05 15:53:00
10:09 AM,55.4,53.6,94,30.07,3.0,Calm,Calm,-,0.00,Rain,Light Rain,0,2013-02-05 16:09:00
10:53 AM,57.9,55.0,90,30.06,10.0,Calm,Calm,-,0.01,,Overcast,0,2013-02-05 16:53:00
11:53 AM,60.1,55.9,86,30.04,10.0,Calm,Calm,-,N/A,,Overcast,0,2013-02-05 17:53:00
12:53 PM,64.9,55.9,73,30.01,10.0,Calm,Calm,-,N/A,,Overcast,0,2013-02-05 18:53:00
1:53 PM,66.0,55.0,68,30.00,10.0,Calm,Calm,-,N/A,,Overcast,0,2013-02-05 19:53:00
2:53 PM,64.0,55.9,75,29.99,10.0,Calm,Calm,-,N/A,,Overcast,0,2013-02-05 20:53:00
3:53 PM,64.9,55.0,70,29.99,10.0,Calm,Calm,-,N/A,,Overcast,0,2013-02-05 21:53:00
4:53 PM,63.0,55.9,78,29.99,10.0,Calm,Calm,-,N/A,,Overcast,0,2013-02-05 22:53:00
5:34 PM,60.8,57.2,88,30.00,10.0,South,6.9,-,N/A,,Overcast,180,2013-02-05 23:34:00
5:53 PM,60.1,57.0,90,29.99,10.0,South,6.9,-,N/A,,Overcast,170,2013-02-05 23:53:00
6:02 PM,60.8,55.4,82,30.00,10.0,South,6.9,-,N/A,,Overcast,170,2013-02-06 00:02:00
6:32 PM,59.0,55.4,88,30.00,10.0,Calm,Calm,-,N/A,,Overcast,0,2013-02-06 00:32:00
6:53 PM,59.0,55.9,90,30.00,10.0,SSE,3.5,-,N/A,,Overcast,160,2013-02-06 00:53:00
7:08 PM,59.0,55.4,88,30.02,10.0,Calm,Calm,-,N/A,,Overcast,0,2013-02-06 01:08:00
7:16 PM,59.0,55.4,88,30.02,10.0,Calm,Calm,-,N/A,,Overcast,0,2013-02-06 01:16:00
7:53 PM,57.0,55.0,93,30.01,10.0,South,3.5,-,N/A,,Partly Cloudy,170,2013-02-06 01:53:00
8:36 PM,57.2,55.4,94,30.03,10.0,Calm,Calm,-,N/A,,Scattered Clouds,0,2013-02-06 02:36:00
8:45 PM,57.2,55.4,94,30.03,9.0,Calm,Calm,-,N/A,,Mostly Cloudy,0,2013-02-06 02:45:00
8:53 PM,55.9,54.0,93,30.03,6.0,Calm,Calm,-,N/A,,Mostly Cloudy,0,2013-02-06 02:53:00
9:29 PM,57.2,55.4,94,30.04,7.0,Calm,Calm,-,N/A,,Overcast,0,2013-02-06 03:29:00
9:53 PM,57.0,55.9,96,30.05,2.0,NNE,3.5,-,N/A,,Overcast,30,2013-02-06 03:53:00
10:04 PM,57.2,55.4,94,30.05,3.0,North,3.5,-,N/A,,Overcast,10,2013-02-06 04:04:00
10:15 PM,57.2,55.4,94,30.05,1.8,Calm,Calm,-,N/A,,Overcast,0,2013-02-06 04:15:00
10:38 PM,57.2,55.4,94,30.04,0.5,Calm,Calm,-,N/A,Fog,Fog,0,2013-02-06 04:38:00
10:53 PM,55.9,55.0,97,30.04,0.2,Calm,Calm,-,N/A,Fog,Fog,0,2013-02-06 04:53:00
11:53 PM,53.1,51.1,93,30.04,0.2,Calm,Calm,-,N/A,Fog,Fog,0,2013-02-06 05:53:00